Regional Weather Roundup
Issued by NWS Spokane, WA

Home | Current Version | Previous Version | Text Only | Print | Product List | Glossary On
Versions: 1 2 3 4 5 6 7 8 9 10 11 12 13 14 15 16 17 18 19 20 21 22 23 24 25 26 27 28 29 30 31 32 33 34 35 36 37 38 39 40 41 42 43 44 45 46 47 48 49 50
230
NZUS01 KOTX 150825
RWROTX

Eastern Washington/Northern Idaho Roundup
National Weather Service, Spokane WA
1200 AM PST FRI DEC 15 2017

Note: "fair" indicated few or no clouds below 12,000 feet with no
significant weather and/or obstructions to visibility.

...Northeast Washington and Northern Idaho Panhandle...

CITY           SKY/WX    TMP DP  RH WIND       PRES   REMARKS
Spokane Intl   LGT SNOW  28  28 100 CALM      30.30F FOG
Spokane Downto CLOUDY    32  28  85 SW5       30.33F WCI  27
Coeur d Alene  CLOUDY    30  27  88 CALM      30.30F
Deer Park      CLOUDY    29  27  92 CALM      30.30F
Sandpoint      CLOUDY    30  27  86 CALM      30.29F
Bonners Ferry  CLOUDY    27  25  93 CALM      30.28F

...Southeast Washington and southern Idaho Panhandle...

CITY           SKY/WX    TMP DP  RH WIND       PRES   REMARKS
Walla Walla    CLOUDY    30  26  85 SW5       30.37F WCI  25
Pullman/Moscow CLOUDY    30  27  88 E6        30.28F WCI  24
Lewiston       MOCLDY    24  23  96 SE7       30.33F WCI  16
Lowell           N/A     33  31  92 CALM      30.36F
Grangeville    CLOUDY   N/A N/A N/A CALM      30.28R VSB 1/4

...Columbia Basin...

CITY           SKY/WX    TMP DP  RH WIND       PRES   REMARKS
Ephrata        CLOUDY    31  27  85 S5        30.35F FOG     WCI  26
Moses Lake     CLOUDY    30  29  96 SE8       30.34F FOG     WCI  22
Pasco          CLOUDY    32  27  81 SE5       30.43S WCI  27
Richland       CLOUDY    34  30  86 E6        30.39F WCI  29
Hermiston      CLOUDY    31  28  89 W5        30.40F WCI  26
Pendleton      CLOUDY    28  24  85 W6        30.34F WCI  22

...East Slopes Cascades...

CITY           SKY/WX    TMP DP  RH WIND       PRES   REMARKS
The Dalles     CLOUDY    35  26  69 S6        30.42F
Yakima         CLOUDY    33  29  85 CALM      30.37F
Ellensburg     CLOUDY    31  28  89 CALM      30.32F FOG
Stampede Pass  FOG       22  20  92 NE8       30.19F VSB 3/4 WCI  12
Wenatchee      CLOUDY    32  29  88 E6        30.34F WCI  26
Omak           CLOUDY    33  31  92 S8        30.32F WCI  26
Sunnyside      CLOUDY    31  29  93 CALM      30.38F

...Southern British Columbia...

CITY           SKY/WX    TMP DP  RH WIND       PRES   REMARKS
Penticton      CLOUDY    36  28  75 S15G22    30.29F
Cranbrook      CLOUDY    21  19  93 VRB2      30.22F
Osoyoos          N/A     34  30  86 SE5         N/A  WCI  30
Creston          N/A     28  21  74 E3          N/A

...Western Montana...

CITY           SKY/WX    TMP DP  RH WIND       PRES   REMARKS
Kalispell      CLOUDY    28  26  92 CALM      30.27F
Libby            N/A     28  25  86 CALM      30.26F
Missoula       CLOUDY    25  24  96 CALM      30.28F FOG

...Neighboring Cities...

CITY           SKY/WX    TMP DP  RH WIND       PRES   REMARKS
Seattle        MOCLDY    39  35  86 SE6       30.23F
Portland       PTCLDY    36  29  75 NE5       30.31R
Boise          CLOUDY    26  23  88 SE6       30.44F WCI  19
Great Falls    CLOUDY    38  17  42 SW21      29.96F
Calgary        MOCLDY    36  14  41 S6        29.76F



USA.gov is the U.S. government's official web portal to all federal, state and local government web resources and services.